Weather History for KP59 - February, 2013

Change the Weather History Date:

Monday, February 11, 2013

  Actual Average Record
Temperature  
Mean Temperature 26 °F -  
Max Temperature 33 °F 25 °F 42 °F (1999)
Min Temperature 19 °F 13 °F -2 °F (2003)
Degree Days  
Heating Degree Days 39    
Moisture  
Dew Point 25 °F    
Average Humidity 92    
Maximum Humidity 100    
Minimum Humidity 82    
Precipitation  
Precipitation 0.11 in - - ()
Sea Level Pressure  
Sea Level Pressure 29.50 in    
Wind  
Wind Speed 14 mph (NE)    
Max Wind Speed 28 mph    
Max Gust Speed 37 mph    
Averages and records for this station are not official NWS values.
T = Trace of Precipitation, MM = Missing Value Source: NWS Daily Summary

Daily Weather History Graph

Daily Weather History Graph

Search for Another Location

Airport or City:

Trip Planner

Search our weather history database for the weather conditions in past years. The results will help you decide how hot, cold, wet, or windy it might be!

Date:

Astronomy

Feb. 11, 2013 Rise Set
Actual Time 8:02 AM EST 6:09 PM EST
Civil Twilight 7:30 AM EST 6:41 PM EST
Nautical Twilight 6:54 AM EST 7:17 PM EST
Astronomical Twilight 6:19 AM EST 7:53 PM EST
Moon 8:17 AM EST (2/11) 8:18 PM EST (2/11)
Length of Visible Light 11h 10m
Length of Day
10h 06m
Waxing Crescent, 3% of the Moon is Illuminated
Feb 11
Waxing Crescent
Feb 17
First Quarter
Feb 25
Full
Mar 4
Last Quarter
Mar 11
New

Hourly Weather History & Observations

Time (EST) Temp. Windchill Dew Point Humidity Pressure Visibility Wind Dir Wind Speed Gust Speed Precip Events Conditions
12:51 AM 33.1 °F 26.1 °F 32.0 °F 96% 29.40 in - South 8.1 mph - 0.04 in   Unknown
1:51 AM 33.1 °F 28.7 °F 32.0 °F 96% 29.36 in - SSE 4.6 mph - 0.01 in   Unknown
2:51 AM 33.1 °F 30.0 °F 33.1 °F 100% 29.33 in - ESE 3.5 mph - N/A   Unknown
3:51 AM 33.1 °F 30.0 °F 33.1 °F 100% 29.31 in - SSE 3.5 mph - N/A   Unknown
4:51 AM 32.0 °F - 32.0 °F 100% 29.29 in - Calm Calm - 0.01 in   Unknown
5:51 AM 32.0 °F 27.5 °F 32.0 °F 100% 29.28 in - East 4.6 mph - 0.02 in   Unknown
6:51 AM 32.0 °F 23.6 °F 32.0 °F 100% 29.28 in - East 10.4 mph - 0.02 in   Unknown
7:51 AM 32.0 °F 21.6 °F 32.0 °F 100% 29.28 in - ENE 15.0 mph - 0.01 in   Unknown
8:51 AM 30.9 °F 18.4 °F 30.0 °F 96% 29.30 in - ENE 20.7 mph 28.8 mph N/A   Unknown
9:51 AM 30.9 °F 17.2 °F 30.0 °F 96% 29.33 in - NE 25.3 mph 31.1 mph N/A   Unknown
10:51 AM 30.0 °F 16.6 °F 28.9 °F 96% 29.37 in - NE 23.0 mph 32.2 mph N/A   Unknown
11:51 AM 28.0 °F 12.8 °F 26.1 °F 92% 29.42 in - NNE 27.6 mph 36.8 mph N/A   Unknown
12:51 PM 26.1 °F 10.1 °F 23.0 °F 88% 29.46 in - NNE 27.6 mph 34.5 mph N/A   Unknown
1:51 PM 23.0 °F 6.3 °F 19.9 °F 88% 29.51 in - North 26.5 mph 34.5 mph N/A   Unknown
2:51 PM 21.9 °F 5.5 °F 18.0 °F 85% 29.55 in - North 24.2 mph 31.1 mph N/A   Unknown
3:51 PM 21.0 °F 4.6 °F 18.0 °F 88% 29.60 in - North 23.0 mph 27.6 mph N/A   Unknown
4:51 PM 19.9 °F 2.5 °F 16.0 °F 85% 29.64 in - North 25.3 mph 33.4 mph N/A   Unknown
5:51 PM 21.0 °F 4.3 °F 17.1 °F 85% 29.67 in - North 24.2 mph 32.2 mph N/A   Unknown
6:51 PM 21.0 °F 3.9 °F 17.1 °F 85% 29.71 in - NNE 25.3 mph 32.2 mph N/A   Unknown
7:51 PM 21.0 °F 3.9 °F 17.1 °F 85% 29.74 in - NNE 25.3 mph 31.1 mph N/A   Unknown
8:51 PM 21.0 °F 4.3 °F 17.1 °F 85% 29.76 in - NNE 24.2 mph - N/A   Unknown
9:51 PM 21.0 °F 5.4 °F 17.1 °F 85% 29.78 in - North 20.7 mph 26.5 mph N/A   Unknown
10:51 PM 21.9 °F 6.9 °F 17.1 °F 82% 29.80 in - North 19.6 mph 27.6 mph N/A   Unknown
11:51 PM 21.9 °F 5.5 °F 18.0 °F 85% 29.82 in - NNE 24.2 mph 29.9 mph N/A   Unknown